User: anonymous   Login
Location: Clinton NY
(43.0598°N, 75.3602°W)
Time: 16:19:45
(UTC-04:00)
Language:

Cosmos-2242 - Orbit

View from above orbital plane
View from above orbital plane
View from above satellite
View from above satellite

Ground track
Ground track

The orbit data is extracted from the following two-line orbital elements,

1 22626U 93024A   16175.94766492 +.00000238 +00000-0 +23557-4 0  9992
2 22626 082.5213 019.4920 0017942 226.8180 133.1539 14.87472912252599
Epoch (UTC): 23 June 2016 22:44:38
Eccentricity: 0.0017942
inclination: 82.5213°
perigee height: 593 km
apogee height: 618 km
right ascension of ascending node: 19.4920°
argument of perigee: 226.8180°
revolutions per day: 14.87472912
mean anomaly at epoch: 133.1539°
orbit number at epoch: 25259

The dashed part of the orbit path shows where the satellite is in the earth's shadow,  

DLR